Regional Weather Roundup
Issued by NWS

Home | Current Version | Previous Version | Text Only | Print | Product List | Glossary Off
Versions: 1 2 3 4 5 6 7 8 9 10 11 12 13 14 15 16 17 18 19 20 21 22 23 24 25 26 27 28 29 30 31 32 33 34 35 36 37 38 39 40 41 42 43 44 45 46 47 48 49 50

000
ASUS45 KSLC 250210
RWRUT

UTAH REGIONAL WEATHER ROUNDUP
NATIONAL WEATHER SERVICE SALT LAKE CITY UT
700 PM MST SAT FEB 24 2018

UTZ001>011-023>025-250300-

NORTHERN UTAH

CITY           SKY/WX    TMP DP  RH WIND       PRES   REMARKS
BRIGHAM CITY   CLOUDY    27  17  64 S7        29.99S WCI  20
HILL AFB       CLOUDY    24  16  72 S15       29.95R WCI  11
LOGAN          CLOUDY    26  16  65 S5        29.95S WCI  20
OGDEN          LGT SNOW  25  17  72 S9        29.97R WCI  15
SALT LAKE CITY CLOUDY    30  14  51 S20       29.97S WCI  17
WENDOVER       MOCLDY    32  17  54 NW17      29.95  WCI  21
HEBER CITY     LGT SNOW  21  14  73 CALM      29.93R
WEST JORDAN    CLOUDY    24  17  74 S16       29.97S WCI  11

$$

UTZ011>015-024>027-250300-

CENTRAL/NORTHEAST UTAH

CITY           SKY/WX    TMP DP  RH WIND       PRES   REMARKS
PROVO AIRPORT  CLOUDY    25  18  74 E7        30.02R WCI  17
MOAB/CANYONLAN CLOUDY    33   5  30 NE5       29.92S WCI  29
DELTA          CLOUDY    23  16  74 E6        29.97F WCI  16
PRICE          MOCLDY    23   9  55 NE5       29.91R WCI  17
RICHFIELD      MOCLDY    30  14  51 SW12G20   29.96R WCI  21
VERNAL         CLOUDY    20  12  71 N5        29.93R WCI  13

$$

UTZ013>016-019>022-027-250300-

SOUTHERN UTAH

CITY           SKY/WX    TMP DP  RH WIND       PRES   REMARKS
BRYCE CANYON   CLOUDY    20  11  68 SW10      29.92S WCI   9
CEDAR CITY     CLOUDY    26  13  57 SW13      29.97R WCI  15
MILFORD        CLOUDY    29  15  56 SW14      29.97R WCI  18
ST GEORGE      CLOUDY    41  15  35 SW6       30.06S
HANKSVILLE     CLOUDY    36  10  35 W5        29.96S WCI  32
KANAB          PTCLDY    34  14  44 CALM      30.05R
BLANDING         N/A     29   8  42 CALM      30.02R

$$

REGIONAL REPORTS     COLORADO/ARIZONA

CITY           SKY/WX    TMP DP  RH WIND       PRES   REMARKS
CRAIG, CO      LGT SNOW  20  13  74 W7        29.90R WCI  11
GRAND JUNCTION CLOUDY    31  12  45 NW3       29.94R
RIFLE, CO      CLOUDY    24  10  55 S6        29.92S WCI  17
MONTROSE, CO   CLOUDY    28   8  43 N5        29.94S WCI  23
CORTEZ, CO     CLOUDY    28   8  43 E6        29.96R WCI  22
COLORADO CITY  MOCLDY    34  12  40 NW7       30.04F WCI  28
PAGE, AZ       MOCLDY    40  13  33 N8        29.98R WCI  34
GRAND CANYON   PTCLDY    27  13  55 SW7       29.98F WCI  19
KINGMAN, AZ    MOCLDY    42  -5  13 SW16      30.05S
FLAGSTAFF, AZ  CLEAR     26   9  48 SW10      30.00F WCI  16

$$

REGIONAL REPORTS    NEVADA/IDAHO/WYOMING

CITY           SKY/WX    TMP DP  RH WIND       PRES   REMARKS
LAS VEGAS, NV  MOCLDY    49   8  19 NW12      30.01R
ELY, NY        CLOUDY    23  18  81 CALM      29.96R
ELKO, NV       LGT SNOW  25  24  96 SW7       29.97R FOG     WCI  17
POCATELLO, ID  LGT SNOW  25  19  78 S20G31    29.87S WCI  11
BURLEY, ID     LGT SNOW  26  24  92 W10       29.89R VSB 3/4 WCI  16
EVANSTON, WY   CLOUDY    14  10  84 SW10      29.84R WCI   1
ROCK SPRINGS,  CLOUDY    15  11  83 SW13      29.84R WCI   1

$$



USA.gov is the U.S. government's official web portal to all federal, state and local government web resources and services.